Regional Weather Roundup
Issued by NWS New Orleans/Baton Rouge, LA

Home | Current Version | Previous Version | Text Only | Print | Product List | Glossary Off
Versions: 1 2 3 4 5 6 7 8 9 10 11 12 13 14 15 16 17 18 19 20 21 22 23 24 25 26 27 28 29 30 31 32 33 34 35 36 37 38 39 40 41 42 43 44 45 46 47 48 49 50

624
ASUS44 KLIX 281705
RWRLIX
NEW ORLEANS REGIONAL WEATHER ROUNDUP
NATIONAL WEATHER SERVICE NEW ORLEANS LA
1200 PM CDT THU AUG 28 2014

NOTE: "FAIR" INDICATES FEW OR NO CLOUDS BELOW 12,000 FEET WITH NO
      SIGNIFICANT WEATHER AND/OR OBSTRUCTIONS TO VISIBILITY.
      SKY/WX - SKY CONDITION AND SIGNIFICANT WEATHER.
      TMP - AIR TEMPERATURE.     DP    - DEWPOINT TEMPERATURE.
      RH  - RELATIVE HUMIDITY.   PRES  - PRESSURE.
      HI  - HEAT INDEX.          WCI   - WIND CHILL INDEX.

*  THESE STATIONS ARE NOT NWS OR FAA STATIONS AND ARE NOT UNDER
   NWS QUALITY CONTROL.

LAZ038-040-048-061>063-065>067-069-281800-
SOUTHEAST LOUISIANA

CITY           SKY/WX    TMP DP  RH WIND       PRES   REMARKS
N.O. AUDUBON     N/A     90  72  55 MISG        N/A  HX  97
N.O. INTL ARPT CLOUDY    89  71  55 SE8       30.01S HX  95
N.O. LAKEFRONT PTSUNNY   87  73  62 SE9       30.01F
N.O. DOWNTOWN*   N/A     88  72  58 E3        30.02S
SLIDELL        MOSUNNY   87  73  62 E5        30.01S
BATON ROUGE    MOSUNNY   89  71  55 SE6       30.01S HX  95
BOOTHVILLE     MOSUNNY   88  73  61 E10       30.01S HX  95
BELLE CHASSE   CLOUDY    89  72  56 E8        30.00F HX  96
BOGALUSA*        N/A     91  69  48 SE5       30.03F HX  96
GALLIANO*      NOT AVBL
NEW ROADS*       N/A     87  74  64 E6        30.02R HX  95
GONZALES*      PTSUNNY   87  74  65 SE5       30.00S HX  95
HAMMOND*       PTSUNNY   90  70  51 CALM      30.03F HX  95
HOUMA*         MOSUNNY   88  72  58 NE6       30.01S
PORT FOURCHON* SUNNY     88  73  62 E12       30.01F HX  96

$$

MSZ070-080>082-281800-
SOUTHERN MISSISSIPPI

CITY           SKY/WX    TMP DP  RH WIND       PRES   REMARKS
MCCOMB         PTSUNNY   89  68  49 MISG      30.03S
GULFPORT       MOSUNNY   90  66  45 VRB7      30.01S
BILOXI         PTSUNNY   91  75  57 S10       30.01F HX 102
PASCAGOULA     PTSUNNY   89  69  51 VRB3      30.01F
STENNIS ARPT*  MOSUNNY  N/A N/A N/A SE8       30.02S

$$

COASTAL OBSERVATIONS
LAKE AND NEARSHORE STATIONS

STATION/POSITION TIME  TEMP    WIND        PRES    WAVE
                       AIR SEA DIR/SP/G            HT/PER
                 (UTC) (F)     (DEG/KT/KT) (MB)    (FT/S)
PASCAGOULA       1700   87     110/  6/  8 1016.1
WAVELAND YACHT   1700   84     150/  8/  9 1016.0
GRAND ISLE       1700   88 83  110/  6/ 11 1016.7
SOUTHWEST PASS   1700   90 89   80/ 14/ 15 1016.2
NEW CANAL        1700   87 84  100/  2/  6 1016.7
SHELL BEACH      1700   86 81  100/ 10/ 13 1016.1

OFFSHORE STATIONS

STATION/POSITION TIME  TEMP    WIND        PRES    WAVE
                       AIR SEA DIR/SP/G            HT/PER
                 (UTC) (F)     (DEG/KT/KT) (MB)    (FT/S)
64 S DAUPHIN ISL 1554   85 86   80/ 12/ 14 1016.4

$$




USA.gov is the U.S. government's official web portal to all federal, state and local government web resources and services.